Home   Weather   El Calafate   Past weeks
Flag for Argentina

Past Weather in El Calafate, Santa Cruz, Argentina — Yesterday and Last 2 Weeks

Now
30 °F

Sunny.


Feels Like: 23 °F
Forecast: 38 / 26 °F
Wind: 7 mph from North

Location: Rio Gallegos Aerodrome

Current Time: Jul 18, 2019 at 10:57:49 am

Latest Report: Jul 18, 2019 at 10:00 am


Visibility: 10 mi

Pressure: 29.47 "Hg

Humidity: 93%

Dew Point: 28 °F

Location of El CalafateLocation

Past Weather in El Calafate — Graph

°F

El Calafate Temperature Yesterday

Maximum temperature yesterday: 41 °F (at 3:00 pm)
Minimum temperature yesterday: 32 °F (at 12:00 am)
Average temperature yesterday: 36 °F

High & Low Weather Summary for the Past Weeks

 TemperatureHumidityPressure
High50 °F (Jul 5, 2:00 pm)100% (Jul 3, 10:00 pm)30.12 "Hg (Jul 3, 10:00 pm)
Low19 °F (Jul 3, 10:00 am)50% (Jul 5, 2:00 pm)29.09 "Hg (Jul 16, 12:00 am)
Average37 °F87%29.79 "Hg
* Reported Jul 3 9:00 am — Jul 18 9:00 am, El Calafate. Weather by CustomWeather, © 2019

Note: Actual official high and low records may vary slightly from our data, if they occured in-between our weather recording intervals... More about our weather records

Advertising

El Calafate Weather History for the Previous 24 Hours

Scroll right to see more
 ConditionsComfort  
Time TempWeatherWind HumidityBarometerVisibility
9:00 am
Thu, Jul 18
28 °FClear.7 mph80%29.47 "Hg10 mi
8:00 am28 °FClear.7 mph80%29.47 "Hg10 mi
7:00 am28 °FClear.8 mph86%29.47 "Hg10 mi
6:00 am30 °FClear.6 mph93%29.50 "Hg10 mi
5:00 am30 °FClear.5 mph93%29.50 "Hg10 mi
4:00 am32 °FPartly cloudy.5 mph93%29.50 "HgN/A
3:16 am34 °FPartly cloudy.7 mph100%29.50 "HgN/A
2:00 am36 °FFog.7 mph93%29.50 "Hg1 mi
1:43 am36 °FFog.8 mph93%29.47 "Hg1 mi
1:27 am36 °FFog.7 mph93%29.47 "Hg1 mi
1:00 am36 °FFog.3 mph93%29.47 "Hg1 mi
12:00 am36 °FPassing clouds.1 mph93%29.45 "HgN/A
11:00 pm
Wed, Jul 17
37 °FPartly cloudy.2 mph93%29.45 "HgN/A
10:00 pm39 °FPassing clouds.No wind87%29.45 "HgN/A
9:00 pm39 °FPassing clouds.3 mph87%29.45 "HgN/A
8:00 pm37 °FPassing clouds.6 mph93%29.45 "HgN/A
7:00 pm37 °FPassing clouds.10 mph87%29.45 "HgN/A
6:00 pm39 °FLight rain. Partly cloudy.15 mph87%29.45 "HgN/A
5:00 pm39 °FBroken clouds.13 mph93%29.42 "HgN/A
4:00 pm41 °FBroken clouds.15 mph81%29.45 "HgN/A
3:00 pm41 °FSunny.14 mph76%29.47 "Hg10 mi
2:00 pm39 °FSunny.17 mph75%29.50 "Hg10 mi
1:00 pm39 °FSunny.16 mph70%29.53 "Hg10 mi
12:00 pm39 °FSunny.6 mph75%29.53 "Hg10 mi
11:00 am37 °FPartly sunny.6 mph75%29.56 "HgN/A
10:00 am36 °FScattered clouds.9 mph81%29.56 "HgN/A
Weather by CustomWeather, © 2019

See weather overview